Flag for Canada Weather past 2 weeks in Saint John, New Brunswick, Canada

Now
48 °F

Passing clouds.


Feels Like: 48 °F
Forecast: 36 / 48 °F
Wind: 2 mph from North

Location: Saint John

Current Time: Apr 18, 2015 at 1:48:32 PM

Latest Report: Apr 18, 2015 at 1:00 PM


Visibility: 15 mi

Pressure: 29.97 "Hg

Humidity: 43%

Dew point: 27 °F

Location of Saint JohnLocation

Historic Weather in Saint John — Graph

°F

Saint John temperature yesterday

Maximum temperature yesterday: 48 °F (at 5:00 PM)
Minimum temperature yesterday: 34 °F (at 10:00 PM)
Average temperature yesterday: 40 °F

Past Weeks' High & Low Weather Summary

 TemperatureHumidityPressure
High54 °F (Apr 3, 3:00 PM)100% (Apr 3, 11:00 PM)30.56 "Hg (Apr 3, 11:00 PM)
Low1 °F (Apr 6, 5:00 AM)23% (Apr 16, 3:00 PM)29.21 "Hg (Apr 4, 2:00 PM)
Average34 °F70%30.07 "Hg
* Reported Apr 3 1:00 PM — Apr 18 1:00 PM, Saint John, Weather by CustomWeather, © 2015

Note: Actual official high and low records may vary slightly from our data, if they occured in-between our weather recording intervals... More about our weather records

Advertising

Saint John weather history for previous 24 hours

 ConditionsComfort  
Time TempWeatherWind HumidityBarometerVisibility
1:00 PM
Sat, Apr 18
48 °FPassing clouds.2 mph43%29.97 "Hg15 mi
12:00 PM46 °FPassing clouds.5 mph46%29.95 "Hg15 mi
11:00 AM46 °FPassing clouds.10 mph46%29.95 "Hg15 mi
10:00 AM45 °FPassing clouds.9 mph53%29.93 "Hg15 mi
9:00 AM41 °FSunny.10 mph61%29.94 "Hg15 mi
8:00 AM37 °FSunny.13 mph70%29.93 "Hg15 mi
7:00 AM36 °FClear.2 mph70%29.91 "Hg15 mi
6:00 AM36 °FClear.7 mph75%29.88 "Hg15 mi
5:00 AM39 °FPassing clouds.15 mph70%29.85 "Hg15 mi
4:00 AM41 °FPassing clouds.16 mph76%29.82 "Hg15 mi
3:00 AM32 °FPassing clouds.2 mph93%29.79 "Hg15 mi
2:00 AM34 °FPassing clouds.2 mph100%29.80 "Hg15 mi
1:00 AM32 °FPassing clouds.2 mph100%29.78 "Hg15 mi
12:00 AM34 °FFog.5 mph100%29.77 "Hg1 mi
11:00 PM
Fri, Apr 17
34 °FFog.8 mph100%29.75 "Hg1 mi
10:00 PM34 °FFog.9 mph100%29.75 "Hg1 mi
9:00 PM36 °FFog.7 mph93%29.75 "Hg1 mi
8:00 PM39 °FPassing clouds.7 mph93%29.75 "Hg15 mi
7:00 PM45 °FPassing clouds.9 mph81%29.75 "Hg15 mi
6:00 PM46 °FPassing clouds.12 mph82%29.74 "Hg15 mi
5:00 PM48 °FPassing clouds.12 mph76%29.74 "Hg15 mi
4:00 PM45 °FScattered clouds.14 mph81%29.77 "Hg15 mi
3:00 PM43 °FPartly sunny.14 mph87%29.78 "Hg15 mi
2:00 PM45 °FSprinkles. More clouds than sun.3 mph87%29.81 "Hg8 mi
1:00 PM46 °FMore clouds than sun.12 mph57%29.86 "Hg15 mi
Weather by CustomWeather, © 2015

See weather overviewHow to use our weather pages